ドゥ・トイト-ニェウイミン-デルポルト彗星

57P/du Toit-Neujmin-Delporte (2002)

English version
Home page
Total 6,336 html files since Dec. 4, 1995
Updated on December 3, 2002

---------------------------------------------------------------------

・ プロフィール

・ 軌道要素

Epoch 2002 July 25.0 TT = JDT 2452480.5
T 2002 July 31.1807 TT                                  MPCN
q   1.729511             (2000.0)            P               Q
n   0.1536153      Peri.  115.2429      +0.5615196      +0.8274276
a   3.452865       Node   188.9300      -0.7759209      +0.5232854
e   0.499108       Incl.    2.8447      -0.2874759      +0.2038039
P   6.42
From 175 observations 1983-2002, mean residual 0".9.  Nongravitational
     parameters A1 = +0.41, A2 = +0.0184.

・ 星図

・ 光度変化

	A核:
        m1 =  2.5 + 5 logΔ + 50   log r  [ ,0]  (              〜2002年 7月31日)
        m1 =  9.7 + 5 logΔ + 20.0 log r  [0, ]  (2002年 7月31日〜              )

	B核:
        m1 = 13.5 + 5 logΔ + 25.0 log r

---------------------------------------------------------------------

軌道要素はMPCのEphemerides and Orbital Elementsに掲載されたものです。
星図は StellaNavigator Ver.2.0 for Windows (アストロアーツ 編著 / アスキー出版局刊) で作成したものです。
光度グラフはComet for Windowsで作成したものです。

---------------------------------------------------------------------

Copyright(C) 1995-2008 Seiichi Yoshida (comet@aerith.net). All rights reserved.